Regional Weather Roundup
Issued by NWS

Home | Current Version | Previous Version | Graphics & Text | Print | Product List | Glossary On
Versions: 1 2 3 4 5 6 7 8 9 10 11 12 13 14 15 16 17 18 19 20 21 22 23 24 25 26 27 28 29 30 31 32 33 34 35 36 37 38 39 40 41 42 43 44 45 46 47 48 49 50
000
ASUS43 KOAX 291410
RWRNE

WEATHER ROUNDUP FOR NEBRASKA
NATIONAL WEATHER SERVICE OMAHA NE
900 AM CDT FRI APR 29 2016

NOTES: SATELLITE DATA IS BEING USED TO AUGMENT CLOUD COVER ABOVE
       12000 FEET.
       "FAIR" INDICATES FEW OR NO CLOUDS BELOW 12,000 FEET WITH NO
       SIGNIFICANT WEATHER AND/OR OBSTRUCTIONS TO VISIBILITY.

  * THESE STATIONS DO NOT REPORT WEATHER SUCH AS RAIN...SNOW OR FOG.

NEZ001>004-019>022-054>056-291500-
NEBRASKA PANHANDLE

CITY           SKY/WX    TMP DP  RH WIND       PRES   REMARKS
SCOTTSBLUFF    CLOUDY    38  35  89 NE9       30.03F WCI  31
ALLIANCE       CLOUDY    38  35  89 N8        30.03F WCI  32
CHADRON        CLOUDY    38  35  89 NE5       30.08F WCI  34
KIMBALL        CLOUDY    34  34 100 NE5       30.01F FOG     WCI  30
SIDNEY         FOG       36  35  96 E10       30.02S VSB 1/4 WCI  28
$$

NEZ057>060-069>072-079>082-291500-
SOUTHWEST NEBRASKA

CITY           SKY/WX    TMP DP  RH WIND       PRES   REMARKS
NORTH PLATTE   CLOUDY    41  36  82 N12       30.04F
IMPERIAL       CLOUDY    41  38  89 NE13      30.01F
LEXINGTON      CLOUDY    43  37  80 N15       30.02F
MCCOOK         CLOUDY    43  40  89 NE14      30.02F
OGALLALA       CLOUDY    40  36  83 N9        30.02F WCI  35
$$

NEZ005>010-023>029-035>040-094-291500-
NORTH CENTRAL NEBRASKA

CITY           SKY/WX    TMP DP  RH WIND       PRES   REMARKS
VALENTINE      CLOUDY    39  36  89 N8        30.07F WCI  33
AINSWORTH      CLOUDY    40  39  96 N10       30.07F WCI  34
BROKEN BOW     CLOUDY    42  39  89 N12       30.05R
O`NEILL        CLOUDY    40  39  95 N9        30.08F WCI  35
ORD            CLOUDY    43  39  86 N13       30.04F
THEDFORD       CLOUDY    42  38  88 N9        30.07R
$$

NEZ041-046>049-061>064-073>077-083>087-291500-
SOUTH CENTRAL NEBRASKA

CITY           SKY/WX    TMP DP  RH WIND       PRES   REMARKS
GRAND ISLAND   CLOUDY    42  38  85 NE12      30.05R
AURORA         CLOUDY    43  40  91 NE15      30.03F
HASTINGS       CLOUDY    43  38  82 NE13      30.04R
HEBRON         CLOUDY    45  39  80 E10       30.06R
HOLDREGE       MOSUNNY   42  38  84 NE10      30.03S
KEARNEY *      CLOUDY    43  37  81 NE13      30.05R
YORK           CLOUDY    43  39  87 NE14      30.05S
$$

NEZ011>018-030>034-042>045-291500-
NORTHEAST NEBRASKA

CITY           SKY/WX    TMP DP  RH WIND       PRES   REMARKS
NORFOLK        CLOUDY    44  38  79 N13       30.07S
ALBION         CLOUDY    43  38  81 N10       30.06S
BLAIR          CLOUDY    45  41  86 N13G18    30.05F
COLUMBUS *     CLOUDY    45  36  70 N12       30.05F
FREMONT        CLOUDY    44  40  86 N7        30.06F
TEKAMAH        CLOUDY    44  41  89 N12       30.07F
WAYNE          CLOUDY    42  40  93 NE10      30.09F
$$

NEZ050>053-065>068-078-088>093-291500-
SOUTHEAST NEBRASKA

CITY           SKY/WX    TMP DP  RH WIND       PRES   REMARKS
LINCOLN        CLOUDY    47  38  71 NE14      30.08R
OMAHA EPPLEY   CLOUDY    46  40  79 NE14      30.07F
BEATRICE       CLOUDY    45  39  81 E10       30.07R
FALLS CITY     CLOUDY    47  41  80 NE10      30.08R
NEBRASKA CITY  CLOUDY    45  40  84 NE12      30.08S
PLATTSMOUTH    CLOUDY    45  39  78 NE9G16    30.08R
$$

NEZ044-045-051>053-067-291500-
OMAHA AREA

CITY           SKY/WX    TMP DP  RH WIND       PRES   REMARKS
OMAHA EPPLEY   CLOUDY    46  40  79 NE14      30.07F
BLAIR          CLOUDY    45  41  86 N13G18    30.05F
FREMONT        CLOUDY    44  40  86 N7        30.06F
MILLARD        CLOUDY    46  39  76 NE8       30.07R
OFFUTT AFB     CLOUDY    46  40  79 NE10      30.07R
PLATTSMOUTH    CLOUDY    45  39  78 NE9G16    30.08R
WAHOO          CLOUDY    45  41  85 NE13      30.07S
$$



USA.gov is the U.S. government's official web portal to all federal, state and local government web resources and services.